TimeCDT,TemperatureF,Dew PointF,Humidity,Sea Level PressureIn,VisibilityMPH,Wind Direction,Wind SpeedMPH,Gust SpeedMPH,PrecipitationIn,Events,Conditions,WindDirDegrees,DateUTC
12:52 AM,75.0,68.0,79,29.93,10.0,South,8.1,-,N/A,,Clear,170,2013-09-20 05:52:00
1:52 AM,75.0,66.9,76,29.93,10.0,South,6.9,-,N/A,,Scattered Clouds,180,2013-09-20 06:52:00
2:52 AM,75.0,66.0,73,29.91,10.0,South,10.4,-,N/A,,Clear,190,2013-09-20 07:52:00
3:52 AM,73.9,64.9,73,29.90,10.0,South,9.2,-,N/A,,Clear,190,2013-09-20 08:52:00
4:52 AM,75.0,64.9,71,29.89,10.0,SSW,11.5,-,N/A,,Partly Cloudy,200,2013-09-20 09:52:00
5:52 AM,75.0,64.9,71,29.91,10.0,Variable,4.6,17.3,N/A,,Overcast,0,2013-09-20 10:52:00
6:52 AM,72.0,68.0,87,29.91,8.0,SW,4.6,-,0.06,Rain-Thunderstorm,Light Rain,230,2013-09-20 11:52:00
7:11 AM,71.6,69.8,94,29.93,2.5,West,5.8,-,0.03,Rain,Light Rain,260,2013-09-20 12:11:00
7:22 AM,71.6,68.0,88,29.93,8.0,West,8.1,-,0.04,Rain,Light Rain,260,2013-09-20 12:22:00
7:39 AM,71.6,69.8,94,29.94,2.0,SW,4.6,-,0.07,Rain,Rain,230,2013-09-20 12:39:00
7:52 AM,71.1,69.1,93,29.92,2.0,SSE,3.5,-,0.10,Rain,Light Rain,150,2013-09-20 12:52:00
7:56 AM,71.6,69.8,94,29.93,3.0,Calm,Calm,-,0.00,Rain,Light Rain,0,2013-09-20 12:56:00
8:52 AM,72.0,70.0,93,29.93,3.0,SW,3.5,-,0.03,,Overcast,230,2013-09-20 13:52:00
9:52 AM,73.0,70.0,90,29.93,8.0,SW,3.5,-,N/A,,Overcast,220,2013-09-20 14:52:00
10:45 AM,71.6,69.8,94,29.95,2.5,South,5.8,-,0.02,Rain,Rain,190,2013-09-20 15:45:00
10:52 AM,72.0,70.0,93,29.94,3.0,SSW,3.5,-,0.03,Rain,Rain,200,2013-09-20 15:52:00
11:42 AM,73.4,71.6,94,29.95,1.8,Calm,Calm,-,0.03,Rain,Rain,0,2013-09-20 16:42:00
11:52 AM,72.0,69.1,91,29.93,3.0,WSW,3.5,-,0.04,Rain,Light Rain,240,2013-09-20 16:52:00
12:23 PM,71.6,68.0,88,29.93,1.8,WSW,4.6,-,0.05,Rain,Heavy Rain,240,2013-09-20 17:23:00
12:31 PM,71.6,69.8,94,29.93,3.0,SW,3.5,-,0.06,Rain,Light Rain,230,2013-09-20 17:31:00
12:52 PM,72.0,70.0,93,29.91,6.0,South,3.5,-,0.07,Rain,Light Rain,170,2013-09-20 17:52:00
1:30 PM,71.6,69.8,94,29.91,9.0,Calm,Calm,-,0.01,Rain,Light Rain,0,2013-09-20 18:30:00
1:52 PM,72.0,70.0,93,29.89,6.0,Calm,Calm,-,0.02,Rain,Light Rain,0,2013-09-20 18:52:00
2:52 PM,71.1,70.0,96,29.89,3.0,SSW,3.5,-,0.08,Rain,Light Rain,210,2013-09-20 19:52:00
3:52 PM,72.0,69.1,91,29.87,5.0,SSW,4.6,-,0.05,Rain,Light Rain,200,2013-09-20 20:52:00
3:59 PM,71.6,69.8,94,29.88,5.0,Calm,Calm,-,0.00,Rain,Light Rain,0,2013-09-20 20:59:00
4:07 PM,71.6,69.8,94,29.88,5.0,South,3.5,-,0.01,Rain,Light Rain,190,2013-09-20 21:07:00
4:14 PM,71.6,69.8,94,29.88,5.0,Calm,Calm,-,0.02,Rain,Light Rain,0,2013-09-20 21:14:00
4:33 PM,71.6,69.8,94,29.88,7.0,Calm,Calm,-,0.03,Rain,Light Rain,0,2013-09-20 21:33:00
4:52 PM,71.1,69.1,93,29.87,10.0,Calm,Calm,-,0.04,Rain,Light Rain,0,2013-09-20 21:52:00
5:48 PM,71.6,69.8,94,29.87,10.0,Calm,Calm,-,0.00,,Overcast,0,2013-09-20 22:48:00
5:52 PM,71.1,69.1,93,29.86,10.0,WNW,4.6,-,0.00,,Mostly Cloudy,300,2013-09-20 22:52:00
6:05 PM,71.6,69.8,94,29.86,10.0,Calm,Calm,-,N/A,,Mostly Cloudy,0,2013-09-20 23:05:00
6:52 PM,70.0,69.1,97,29.85,10.0,Calm,Calm,-,0.00,,Mostly Cloudy,0,2013-09-20 23:52:00
7:52 PM,70.0,69.1,97,29.86,8.0,Calm,Calm,-,0.00,,Mostly Cloudy,0,2013-09-21 00:52:00
8:31 PM,69.8,69.8,100,29.87,10.0,West,3.5,-,N/A,,Overcast,280,2013-09-21 01:31:00
8:52 PM,70.0,68.0,93,29.87,10.0,NNW,5.8,-,N/A,,Overcast,330,2013-09-21 01:52:00
8:58 PM,69.8,68.0,94,29.88,10.0,NNW,6.9,-,N/A,,Overcast,340,2013-09-21 01:58:00
9:06 PM,69.8,68.0,94,29.88,10.0,NNW,9.2,-,N/A,,Overcast,340,2013-09-21 02:06:00
9:17 PM,68.0,66.2,94,29.88,9.0,NNW,11.5,-,N/A,,Overcast,330,2013-09-21 02:17:00
9:52 PM,68.0,66.0,93,29.88,8.0,NNW,10.4,-,N/A,,Overcast,330,2013-09-21 02:52:00
10:05 PM,66.2,62.6,88,29.88,10.0,NNW,11.5,19.6,N/A,,Overcast,330,2013-09-21 03:05:00
10:47 PM,64.4,62.6,94,29.88,4.0,NNW,5.8,-,0.01,Rain,Light Rain,330,2013-09-21 03:47:00
10:52 PM,64.9,63.0,93,29.88,4.0,NW,4.6,-,0.01,Rain,Light Rain,320,2013-09-21 03:52:00
11:52 PM,64.9,62.1,90,29.88,10.0,NW,5.8,-,0.00,,Overcast,310,2013-09-21 04:52:00